Погода в Головине

Россия / Белгородская область     50°28′16″N   36°26′44″E
темп.,
°C
ветер,
м/с
пор.,
м/с
влажн.,
%
обл.,
%
осадки,
мм/ч
давл.,
гПа
погр.,
м
17 мая, вт
вт1700:00+6зсз411865 0.0 1014233
03:00+4з410901 0.0 1014198
06:00+5з411840 0.0 1013279
09:00+11зсз611605 0.0 10131373
12:00+13зсз7944100 0.1 10112635
15:00+14сз7114078 0.1 10102685
18:00+13зсз67576 0.1 10101195
21:00+8зсз357862 0.3 101080
18 мая, ср
ср1800:00+6зсз478423 0.1 1010118
03:00+4зсз36890 0.1 1010111
06:00+4сз38900 0.0 1011226
09:00+10ссз566944 0.0 10111040
12:00+9с467997 0.1 1013872
15:00+11с347290 0.2 1013716
18:00+12ссв587230 0.4 10141104
21:00+7с36915 0.6 101793
19 мая, чт
чт1900:00+6ссз48925 0.0 1018133
03:00+5ссз411955 0.0 1019212
06:00+5с49924 0.0 1020244
09:00+11с46660 0.0 1021783
12:00+15ссз46536 0.0 10211532
15:00+16сз674934 0.0 10192001
18:00+15сз596261 0.0 1019575
21:00+10сз4876100 0.0 1020135
20 мая, пт
пт2000:00+8зсз47855 0.0 1019112
03:00+7сз359370 0.0 102285
06:00+8сз359041 0.0 1022139
09:00+13зсз4573100 0.0 1022427
12:00+17зсз575663 0.1 10211734
15:00+17зсз4656100 0.2 10201845
18:00+14з4976100 0.6 1019307
21:00+12ююз3486100 1.1 101854
21 мая, сб
сб2100:00+12юз4128598 0.0 1015233
03:00+11юз51383100 0.0 1012286
06:00+12зюз41088100 0.4 1011325
09:00+13зюз61389100 0.9 1009470
12:00+18з81176100 0.1 1007982
15:00+16зюз61188100 0.6 1006770
18:00+15зюз61297100 7.2 1005640
21:00+14з4998100 10.3 1004520